Location: ?
(35.4064°N, 139.3593°E)
Time: 04:33:08
(UTC+00:00)

Cosmos 2315 Rocket - Pass Details

Date: 18 April 2024
Orbit: 965 x 1002 km, 82.9° (Epoch: 23 May)

Event Time Altitude Azimuth Distance (km) Brightness Sun altitude
Rises 19:33:10 0° 346° (NNW) 3,660 7.1 -7.1°
Reaches altitude 10° 19:35:46 10° 340° (NNW) 2,709 6.3 -6.6°
Maximum altitude 19:41:36 45° 270° (W) 1,291 4.3 -5.4°
Drops below altitude 10° 19:47:26 10° 199° (SSW) 2,701 6.0 -4.3°
Sets 19:50:02 0° 193° (SSW) 3,647 6.7 -3.8°
